Regional Weather Roundup
Issued by NWS

Home | Current Version | Previous Version | Graphics & Text | Print | Product List | Glossary On
Versions: 1 2 3 4 5 6 7 8 9 10 11 12 13 14 15 16 17 18 19 20 21 22 23 24 25 26 27 28 29 30 31 32 33 34 35 36 37 38 39 40 41 42 43 44 45 46 47 48 49 50
341
ASUS43 KIND 140159
RWRIN

WEATHER ROUNDUP FOR INDIANA
NATIONAL WEATHER SERVICE INDIANAPOLIS IN
900 PM EST SAT FEB 13 2016

NOTE: "FAIR" INDICATES FEW OR NO CLOUDS BELOW 12,000 FEET WITH NO
SIGNIFICANT WEATHER AND/OR OBSTRUCTIONS TO VISIBILITY.

* - STATION DOES NOT REPORT WEATHER SUCH AS PRECIPITATION OR FOG.

+ - STATION NOT QUALITY CONTROLLED BY THE NATIONAL WEATHER SERVICE.
    USE DATA WITH CAUTION...ESPECIALLY DEWPOINT AND RELATIVE
    HUMIDITY OBSERVATIONS.

INZ001>003-010>013-019-020-140300-
NORTHWEST INDIANA

CITY           SKY/WX    TMP DP  RH WIND       PRES   REMARKS
GARY /AIRPORT/ PTCLDY    14   0  52 CALM      30.50F
RENSSELAER +   CLOUDY    14   1  57 CALM      30.50F

$$

LMZ046-743>745-140300-
SOUTHERN LAKE MICHIGAN

STATION/POSITION TIME  TEMP    WIND        PRES    WAVE
                       AIR SEA DIR/SP/G            HT
                 (UTC) (F)     (DEG/KT/KT) (MB)    (FT)
BURNS HARBOR     0100   14     170/  2/  3 1033.5S
MICHIGAN CITY    0100   15     280/  6/  7   N/A

$$

INZ004-005-014>016-021>024-140300-
NORTH CENTRAL INDIANA

CITY           SKY/WX    TMP DP  RH WIND       PRES   REMARKS
GOSHEN         CLOUDY    12   5  73 W7        30.48S WCI   1
SOUTH BEND     CLOUDY     8   2  76 CALM      30.49F

$$

INZ006>009-017-018-025>027-140300-
NORTHEAST INDIANA

CITY           SKY/WX    TMP DP  RH WIND       PRES   REMARKS
ANGOLA *+      CLOUDY    10   3  72 W5        30.45R WCI   2
FORT WAYNE     PTCLDY     7   0  73 W6        30.50S WCI  -3

$$

INZ028-029-035-036-043>045-051>053-140300-
WEST CENTRAL INDIANA

CITY           SKY/WX    TMP DP  RH WIND       PRES   REMARKS
CRAWFORDSVL +  CLOUDY    10  -1  59 CALM      30.50F
GREENCASTLE +  CLOUDY    14   0  52 NE3       30.50F
LAFAYETTE      CLOUDY    13   2  61 CALM      30.51F
TERRE HAUTE    PTCLDY    16   3  56 CALM      30.52F

$$

INZ030>032-037>040-046>048-054>057-064-065-140300-
CENTRAL INDIANA

CITY           SKY/WX    TMP DP  RH WIND       PRES   REMARKS
INDIANAPOLIS   CLOUDY    13   0  56 W6        30.49S WCI   4
-EAGLE CREEK   PTCLDY    15   1  53 W5        30.50S WCI   8
KOKOMO *+      CLOUDY     7  -2  66 E5        30.49F WCI  -2
MT COMFORT *+  CLOUDY    10   5  79 CALM      30.50S
SHELBYVILLE    CLOUDY    15   1  53 SW5       30.51R WCI   8

$$

INZ033-034-041-042-049-050-058-059-140300-
EAST CENTRAL INDIANA

CITY           SKY/WX    TMP DP  RH WIND       PRES   REMARKS
MUNCIE         PTCLDY     6  -3  66 CALM      30.49S

$$

INZ060-061-067>069-081>083-085>088-140300-
SOUTHWEST INDIANA

CITY           SKY/WX    TMP DP  RH WIND       PRES   REMARKS
EVANSVILLE     CLOUDY    24   1  36 NE3       30.52F
HUNTINGBURG *+ CLOUDY    19   5  53 N5        30.51F WCI  13

$$

INZ062-063-066-070>080-084-089>092-140300-
SOUTH CENTRAL AND SOUTHEAST INDIANA

CITY           SKY/WX    TMP DP  RH WIND       PRES   REMARKS
BLOOMINGTON    CLOUDY    15   3  59 CALM      30.49S
MADISON *+     CLEAR     16   5  62 NE5       30.52S WCI   9
SEYMOUR +      CLEAR     18   7  62 NE6       30.53S WCI   9

$$





USA.gov is the U.S. government's official web portal to all federal, state and local government web resources and services.